Weather History for KGCK - February, 2014

Change the Weather History Date:

Monday, February 10, 2014

  Actual Average Record
Temperature  
Mean Temperature 12 °F 34 °F  
Max Temperature 15 °F 47 °F 79 °F (1999)
Min Temperature 9 °F 20 °F -14 °F (1981)
Degree Days  
Heating Degree Days 53 32  
Month to date heating degree days 501 325  
Since 1 July heating degree days 3666 3505  
Cooling Degree Days 0 0  
Month to date cooling degree days 0 0  
Year to date cooling degree days 0 0  
Moisture  
Dew Point 8 °F    
Average Humidity 80    
Maximum Humidity 92    
Minimum Humidity 67    
Precipitation  
Precipitation 0.05 in 0.02 in 0.95 in (1993)
Month to date precipitation 0.10 0.17  
Year to date precipitation 0.13 0.51  
Sea Level Pressure  
Sea Level Pressure 30.32 in    
Wind  
Wind Speed 7 mph (East)    
Max Wind Speed 13 mph    
Max Gust Speed 14 mph    
Visibility 4 miles    
Events Snow    
T = Trace of Precipitation, MM = Missing Value Source: NWS Daily Summary

Daily Weather History Graph

Daily Weather History Graph

Search for Another Location

Airport or City:

Trip Planner

Search our weather history database for the weather conditions in past years. The results will help you decide how hot, cold, wet, or windy it might be!

Date:

Astronomy

Feb. 10, 2014 Rise Set
Actual Time 7:38 AM CST 6:16 PM CST
Civil Twilight 7:11 AM CST 6:43 PM CST
Nautical Twilight 6:40 AM CST 7:14 PM CST
Astronomical Twilight 6:09 AM CST 7:45 PM CST
Moon 2:48 PM CST (2/10) 4:31 AM CST (2/10)
Length of Visible Light 11h 32m
Length of Day
10h 38m
Waxing Gibbous, 85% of the Moon is Illuminated
Feb 10
Waxing Gibbous
Feb 14
Full
Feb 22
Last Quarter
Mar 1
New
Mar 8
First Quarter

Hourly Weather History & Observations

Time (CST) Temp. Windchill Dew Point Humidity Pressure Visibility Wind Dir Wind Speed Gust Speed Precip Events Conditions
12:08 AM 12.9 °F 1.6 °F 10.0 °F 88% 30.27 in 1.8 mi ENE 8.1 mph - 0.00 in Snow Light Snow
12:24 AM 12.9 °F 1.6 °F 9.0 °F 84% 30.27 in 1.2 mi NE 8.1 mph - 0.00 in Snow Light Snow
12:42 AM 12.0 °F 1.5 °F 9.0 °F 88% 30.28 in 0.8 mi NE 6.9 mph - 0.01 in Snow Light Snow
12:54 AM 12.0 °F 2.7 °F 9.0 °F 88% 30.42 in 1.2 mi NE 5.8 mph - 0.01 in Snow Light Snow
1:01 AM 12.0 °F -0.4 °F 9.0 °F 88% 30.29 in 2.0 mi NNE 9.2 mph - 0.00 in Snow Light Snow
1:25 AM 12.0 °F -2.0 °F 8.1 °F 84% 30.28 in 3.0 mi NNE 11.5 mph - 0.00 in Snow Light Snow
1:39 AM 12.0 °F -0.4 °F 8.1 °F 84% 30.28 in 2.0 mi NNE 9.2 mph - 0.00 in Snow Light Snow
1:47 AM 12.0 °F 0.5 °F 8.1 °F 84% 30.27 in 1.5 mi NNE 8.1 mph - 0.00 in Snow Light Snow
1:54 AM 12.0 °F -1.3 °F 8.1 °F 84% 30.40 in 1.5 mi NE 10.4 mph - 0.00 in Snow Light Snow
2:17 AM 10.9 °F -1.8 °F 8.1 °F 88% 30.27 in 2.0 mi NE 9.2 mph - 0.00 in Snow Light Snow
2:24 AM 10.9 °F -1.8 °F 8.1 °F 88% 30.27 in 2.5 mi NE 9.2 mph - 0.00 in Snow Light Snow
2:33 AM 10.9 °F -2.6 °F 8.1 °F 88% 30.29 in 3.0 mi NE 10.4 mph - 0.00 in Snow Light Snow
2:54 AM 10.9 °F -1.8 °F 8.1 °F 88% 30.41 in 5.0 mi ENE 9.2 mph - 0.00 in Snow Light Snow
3:27 AM 10.9 °F -2.6 °F 7.0 °F 84% 30.26 in 9.0 mi ENE 10.4 mph - 0.00 in   Overcast
3:54 AM 10.0 °F -2.9 °F 6.1 °F 84% 30.40 in 10.0 mi ENE 9.2 mph - 0.00 in   Overcast
4:54 AM 9.0 °F -4.2 °F 6.1 °F 88% 30.41 in 10.0 mi NE 9.2 mph - N/A   Overcast
5:54 AM 9.0 °F -4.2 °F 6.1 °F 88% 30.41 in 6.0 mi ENE 9.2 mph - N/A   Overcast
6:16 AM 9.0 °F -4.2 °F 6.1 °F 88% 30.26 in 4.0 mi ENE 9.2 mph - 0.00 in Snow Light Snow
6:30 AM 9.0 °F -2.2 °F 6.1 °F 88% 30.27 in 9.0 mi NE 6.9 mph - 0.00 in   Overcast
6:54 AM 9.0 °F -2.2 °F 5.0 °F 84% 30.43 in 8.0 mi East 6.9 mph - 0.00 in   Overcast
7:54 AM 9.0 °F -4.2 °F 6.1 °F 88% 30.43 in 4.0 mi East 9.2 mph - N/A   Overcast
8:54 AM 9.0 °F -4.2 °F 5.0 °F 84% 30.42 in 6.0 mi East 9.2 mph - N/A   Overcast
9:41 AM 9.0 °F -5.1 °F 5.0 °F 84% 30.26 in 1.8 mi East 10.4 mph - 0.00 in Snow Light Snow
9:50 AM 10.4 °F -4.1 °F 5.0 °F 79% 30.27 in 1.0 mi ESE 11.5 mph - 0.00 in Snow Light Snow
9:54 AM 10.0 °F -3.7 °F 5.0 °F 80% 30.42 in 1.0 mi ESE 10.4 mph - 0.00 in Snow Light Snow
10:08 AM 10.0 °F -2.9 °F 5.0 °F 80% 30.27 in 2.5 mi ESE 9.2 mph - 0.00 in Snow Light Snow
10:17 AM 10.0 °F -2.9 °F 5.0 °F 80% 30.27 in 4.0 mi ESE 9.2 mph - 0.00 in   Haze
10:54 AM 10.9 °F 1.4 °F 6.1 °F 81% 30.41 in 6.0 mi SE 5.8 mph - 0.00 in   Haze
11:33 AM 12.9 °F 6.9 °F 6.1 °F 74% 30.27 in 10.0 mi East 3.5 mph - N/A   Overcast
11:54 AM 12.9 °F - 6.1 °F 74% 30.41 in 10.0 mi Calm Calm - N/A   Overcast
12:23 PM 14.0 °F 6.5 °F 7.0 °F 74% 30.26 in 10.0 mi East 4.6 mph - N/A   Overcast
12:40 PM 12.9 °F - 7.0 °F 77% 30.26 in 10.0 mi Calm Calm - N/A   Overcast
12:54 PM 15.1 °F - 7.0 °F 70% 30.38 in 9.0 mi Calm Calm - N/A   Overcast
1:47 PM 15.1 °F 9.4 °F 7.0 °F 70% 30.24 in 9.0 mi ESE 3.5 mph - N/A   Overcast
1:54 PM 15.1 °F 7.7 °F 8.1 °F 74% 30.36 in 10.0 mi ENE 4.6 mph - N/A   Overcast
2:54 PM 14.0 °F 5.1 °F 8.1 °F 77% 30.35 in 10.0 mi ENE 5.8 mph - N/A   Overcast
3:54 PM 14.0 °F 2.9 °F 8.1 °F 77% 30.36 in 6.0 mi East 8.1 mph - N/A   Haze
4:12 PM 14.0 °F 2.9 °F 9.0 °F 80% 30.22 in 2.0 mi East 8.1 mph - 0.00 in Snow Light Snow
4:19 PM 14.0 °F 2.9 °F 9.0 °F 80% 30.21 in 1.5 mi East 8.1 mph - 0.00 in Snow Light Snow
4:27 PM 14.0 °F 2.9 °F 9.0 °F 80% 30.21 in 1.2 mi East 8.1 mph - 0.00 in Snow Light Snow
4:42 PM 14.0 °F 2.0 °F 9.0 °F 80% 30.21 in 0.8 mi East 9.2 mph - 0.00 in Snow Light Snow
4:54 PM 14.0 °F 2.9 °F 10.0 °F 84% 30.36 in 0.8 mi East 8.1 mph - 0.00 in Snow Light Snow
5:21 PM 14.0 °F 2.0 °F 9.0 °F 80% 30.22 in 1.0 mi East 9.2 mph - 0.01 in Snow Light Snow
5:35 PM 12.9 °F -0.2 °F 10.0 °F 88% 30.22 in 0.8 mi East 10.4 mph - 0.01 in Snow Light Snow
5:54 PM 12.9 °F -0.9 °F 9.0 °F 84% 30.36 in 1.0 mi ENE 11.5 mph - 0.01 in Snow Light Snow
6:03 PM 12.9 °F -0.2 °F 9.0 °F 84% 30.22 in 0.8 mi ENE 10.4 mph - 0.00 in Snow Light Snow
6:36 PM 12.9 °F 2.6 °F 9.0 °F 84% 30.24 in 1.5 mi East 6.9 mph - 0.00 in Snow Light Snow
6:54 PM 12.9 °F 1.6 °F 9.0 °F 84% 30.39 in 1.5 mi East 8.1 mph - 0.00 in Snow Light Snow
7:01 PM 12.9 °F 2.6 °F 9.0 °F 84% 30.24 in 1.5 mi East 6.9 mph - 0.00 in Snow Light Snow
7:09 PM 12.9 °F 1.6 °F 9.0 °F 84% 30.24 in 1.5 mi ESE 8.1 mph - 0.00 in Snow Light Snow
7:54 PM 12.0 °F 2.7 °F 9.0 °F 88% 30.41 in 1.5 mi East 5.8 mph - 0.01 in Snow Light Snow
8:15 PM 12.0 °F 4.1 °F 9.0 °F 88% 30.26 in 0.8 mi East 4.6 mph - 0.01 in Snow Light Snow
8:30 PM 12.0 °F 5.9 °F 9.0 °F 88% 30.27 in 1.0 mi ENE 3.5 mph - 0.02 in Snow Light Snow
8:41 PM 12.0 °F 4.1 °F 9.0 °F 88% 30.27 in 1.0 mi ESE 4.6 mph - 0.02 in Snow Light Snow
8:54 PM 12.9 °F 5.2 °F 9.0 °F 84% 30.43 in 1.5 mi East 4.6 mph - 0.02 in Snow Light Snow
9:02 PM 12.0 °F 5.9 °F 9.0 °F 88% 30.28 in 2.0 mi East 3.5 mph - 0.00 in Snow Light Snow
9:13 PM 12.0 °F 5.9 °F 9.0 °F 88% 30.28 in 3.0 mi East 3.5 mph - 0.00 in Snow Light Snow
9:54 PM 12.0 °F 4.1 °F 9.0 °F 88% 30.44 in 9.0 mi SSE 4.6 mph - 0.00 in   Overcast
10:54 PM 12.9 °F 2.6 °F 9.0 °F 84% 30.43 in 9.0 mi South 6.9 mph - N/A   Overcast
11:54 PM 12.9 °F 5.2 °F 9.0 °F 84% 30.43 in 9.0 mi South 4.6 mph - N/A   Overcast